sat.trackr.live / text

‹ back to catalog

STARLINK-1274

NORAD 45387 · 2020-019AD

PAYLOAD ACTIVE UNKNOWN

§ Identity

Operator
Country
US
Launch date
2020-03-18
Launch site
AFETR
Launch vehicle
Mass (kg)
RCS (m²)

Purposes: comms

External: N2YO · Heavens-Above · Gunter

§ Orbital elements

Epoch: 2026-09-20T06:00:02.000160Z

Period
90.73 min
Inclination
53.0069°
Eccentricity
0.0007233
Mean motion
15.87063390 rev/d
Perigee alt
305.7 km
Apogee alt
315.4 km
Semi-major
6,688.7 km
B*
5.8999e-4
RAAN
228.1993°
Arg perigee
82.6141°
Mean anomaly
285.8858°
Rev number
589

§ Raw data

STARLINK-12741 45387U 20019AD  26263.25002315  .00158726  00000+0  58999-3 0  99972 45387  53.0069 228.1993 0007233  82.6141 285.8858 15.87063390  5891

JSON: /api/v1/satellites/45387 · /tle

For live sub-satellite position, see the globe view (requires WebGL).

§ Visibility from observer

Set your observer location to see the next 7 days of passes ≥ 10°. The values pass through the URL so the page stays shareable.

No JS? Fill the form by hand. The geolocation button needs JavaScript.